[[{"header":{"parameterUnit":"m.s-1","parameterCategory":1,"la1":30.2991,"la2":30.254,"lo1":-89.0895,"lo2":-89.0444,"dy":0.0017,"dx":0.0017,"nx":28,"ny":28,"refTime":"2025-08-25T09:00:00:Z","depth":0,"parameterNumber":2,"parameterNumberName":"U-component_of_WINDS"},"data":[0,0,0,0,0,0,0,0,0,0,0,0,0,0,0,0,0,0,0,0,0,0,0,0,0,0,0,0,0,0,0,0,0,0,0,0,0,0,0,0,0,0,0,0,0,0,0,0,0,0,0,0,0,0,0,0,0,0,-1.0545,-1.0545,0,-1.0594,-1.0594,-1.0595,-1.0603,-1.0602,-1.0602,-1.0601,-1.0652,-1.0654,-1.0656,0,0,0,0,0,0,0,0,0,0,0,0,0,-1.0458,-1.0459,-1.0545,-1.0545,-1.0546,-1.0594,-1.0595,-1.0595,-1.0603,-1.0602,-1.0602,-1.0601,-1.0652,-1.0654,-1.0656,0,0,0,0,0,0,0,0,0,0,0,0,0,-1.05,-1.046,-1.0545,-1.0556,-1.0557,-1.0594,-1.0595,-1.0595,-1.0603,-1.0602,-1.0601,-1.0601,-1.0651,-1.0654,-1.0656,-1.0686,0,0,-1.0664,-1.0666,0,0,0,0,0,0,0,0,-1.0498,-1.0503,-1.0553,-1.0555,-1.0557,-1.0591,-1.0583,-1.0626,-1.0603,-1.0585,-1.0601,-1.0601,-1.0633,-1.0637,-1.0648,-1.0688,-1.0691,-1.0665,-1.0666,-1.0667,-1.0668,0,0,0,0,0,0,0,-1.0495,-1.0501,-1.0564,-1.0554,-1.0556,-1.0558,-1.0563,-1.0591,-1.0612,-1.0587,-1.0588,-1.0593,-1.0633,-1.0645,-1.0649,-1.0691,-1.0665,-1.0667,-1.0669,-1.067,-1.0758,-1.0759,0,0,0,0,0,0,-1.049,-1.0499,-1.0563,-1.0566,-1.0525,-1.056,-1.0566,-1.0581,-1.0612,-1.0616,-1.0594,-1.0593,-1.0641,-1.0646,-1.0651,-1.0687,-1.0667,-1.067,-1.0671,-1.0757,-1.0758,-1.0759,0,0,0,0,0,0,-1.0488,-1.0495,-1.0561,-1.0532,-1.0541,-1.0562,-1.0579,-1.0582,-1.0594,-1.0617,-1.0621,-1.0602,-1.064,-1.0647,-1.0677,-1.0689,-1.0671,-1.0674,-1.0756,-1.0758,-1.0759,-1.076,0,0,0,0,0,0,-1.0485,-1.0495,-1.0506,-1.0533,-1.0542,-1.0586,-1.058,-1.0584,-1.0598,-1.0598,-1.0625,-1.0629,-1.064,-1.0673,-1.068,-1.0692,-1.0676,-1.0755,-1.0757,-1.0758,-1.0759,-1.0761,-1.0763,0,0,0,0,0,-1.0482,-1.0505,-1.0507,-1.0515,-1.0557,-1.0587,-1.0592,-1.0605,-1.0599,-1.0611,-1.0626,-1.0628,-1.0686,-1.0676,-1.0683,-1.0697,-1.0755,-1.0757,-1.0758,-1.0758,-1.076,-1.0763,0,0,0,0,0,0,-1.048,-1.0509,-1.0511,-1.0543,-1.0562,-1.0588,-1.0603,-1.0607,-1.0629,-1.0628,-1.0642,-1.0648,-1.0677,-1.069,-1.0678,-1.0727,-1.072,-1.0723,-1.0717,-1.072,-1.0722,-1.0718,-1.0678,0,0,0,0,0,-1.0483,-1.0505,-1.0529,-1.0555,-1.0564,-1.0582,-1.0595,-1.0603,-1.0624,-1.0632,-1.0649,-1.0669,-1.0692,-1.0707,-1.0729,-1.0761,-1.0766,-1.0774,-1.0775,-1.0777,-1.078,-1.0797,-1.08,-1.0765,-1.0765,-1.0765,0,0,-1.0491,-1.0509,-1.0522,-1.0555,-1.0571,-1.0593,-1.0589,-1.0613,-1.0629,-1.0636,-1.0665,-1.0678,-1.0701,-1.0732,-1.0747,-1.0744,-1.079,-1.0779,-1.078,-1.0782,-1.0799,-1.0802,-1.0805,-1.0766,-1.0766,-1.0765,0,0,-1.0515,-1.0531,-1.0554,-1.0569,-1.0593,-1.0604,-1.061,-1.0635,-1.0644,-1.0673,-1.0678,-1.0698,-1.0737,-1.0753,-1.0766,-1.0795,-1.0798,-1.0802,-1.0812,-1.0828,-1.0831,-1.0833,-1.0843,-1.0846,-1.0804,-1.0804,-1.0804,0,-1.052,-1.0554,-1.0565,-1.0588,-1.0602,-1.0609,-1.0632,-1.0647,-1.0677,-1.0686,-1.0683,-1.0731,-1.0747,-1.0781,-1.0788,-1.0799,-1.0805,-1.0799,-1.0829,-1.0832,-1.0835,-1.0844,-1.0848,-1.0805,-1.0805,-1.0805,-1.0805,0,-1.0559,-1.0582,-1.0598,-1.0626,-1.0642,-1.0665,-1.068,-1.0694,-1.07,-1.0712,-1.0741,-1.0761,-1.0787,-1.0795,-1.0801,-1.083,-1.0828,-1.0826,-1.082,-1.0838,-1.0847,-1.0851,-1.0805,-1.0805,-1.0805,-1.0805,0,0,-1.0585,-1.0617,-1.0623,-1.0635,-1.0661,-1.0679,-1.0702,-1.0727,-1.0739,-1.0759,-1.0779,-1.0811,-1.081,-1.0825,-1.0833,-1.0847,-1.0868,-1.0844,-1.0845,-1.0847,-1.09,-1.09,-1.0904,-1.087,-1.087,-1.0871,-1.0898,0,-1.0611,-1.0652,-1.0663,-1.0698,-1.0718,-1.0724,-1.0744,-1.0762,-1.0773,-1.0793,-1.0805,-1.0828,-1.0825,-1.0834,-1.0848,-1.0862,-1.0878,-1.086,-1.0888,-1.0889,-1.0882,-1.0909,-1.091,-1.0934,-1.0901,-1.0902,-1.0902,0,-1.0649,-1.0669,-1.0705,-1.0728,-1.0737,-1.0754,-1.0777,-1.0796,-1.0816,-1.0823,-1.0839,-1.0845,-1.0869,-1.0861,-1.0894,-1.0881,-1.0893,-1.0902,-1.0903,-1.0906,-1.0897,-1.0913,-1.0943,-1.0946,-1.0908,-1.0908,-1.0907,0,-1.0663,-1.0699,-1.0725,-1.0736,-1.0763,-1.0775,-1.0787,-1.0806,-1.082,-1.084,-1.0849,-1.0872,-1.0884,-1.0901,-1.0913,-1.0906,-1.0945,-1.0938,-1.0951,-1.0951,-1.096,-1.0959,-1.0991,-1.0967,-1.0967,-1.0967,-1.0967,0,-1.0692,-1.0714,-1.0732,-1.0748,-1.0773,-1.0785,-1.0809,-1.0821,-1.0838,-1.0856,-1.0863,-1.088,-1.0895,-1.0914,-1.0923,-1.0949,-1.0954,-1.0961,-1.0963,-1.096,-1.0959,-1.0968,-1.0967,-1.0968,-1.0968,-1.0968,-1.0967,0,-1.0713,-1.0726,-1.0755,-1.0777,-1.0783,-1.08,-1.0819,-1.0835,-1.0846,-1.0869,-1.0875,-1.0893,-1.0915,-1.0929,-1.0958,-1.0964,-1.0992,-1.0994,-1.0985,-1.0986,-1.0999,-1.0997,-1.1038,-1.1044,-1.1016,-1.1016,-1.1016,0,-1.0731,-1.0748,-1.0771,-1.0784,-1.0795,-1.0816,-1.0829,-1.0841,-1.0855,-1.0879,-1.0892,-1.0914,-1.0934,-1.0969,-1.0985,-1.1007,-1.1009,-1.1021,-1.1012,-1.1008,-1.1009,-1.1007,-1.1009,-1.1023,-1.1023,-1.1024,-1.1024,0,-1.0761,-1.0766,-1.0785,-1.0807,-1.0822,-1.084,-1.0857,-1.0867,-1.0882,-1.0897,-1.092,-1.0935,-1.0964,-1.0986,-1.1009,-1.1021,-1.1025,-1.1026,-1.1031,-1.1028,-1.1022,-1.1025,-1.0989,-1.1026,-1.1025,-1.1025,-1.1025,-1.1025,-1.0781,-1.0796,-1.0814,-1.0835,-1.0849,-1.0865,-1.0881,-1.0893,-1.0912,-1.0936,-1.0942,-1.0966,-1.0984,-1.1015,-1.1028,-1.1047,-1.1045,-1.1051,-1.1052,-1.1054,-1.1054,-1.1019,-1.1051,-1.1051,-1.1051,-1.1051,-1.1051,0,-1.0811,-1.0823,-1.0842,-1.0866,-1.0882,-1.0883,-1.0902,-1.0916,-1.0936,-1.0953,-1.0971,-1.0997,-1.1019,-1.1035,-1.1057,-1.1069,-1.1071,-1.1074,-1.1074,-1.1076,-1.1055,-1.1049,-1.1072,-1.1072,-1.1072,-1.1072,-1.1072,-1.1072,-1.0829,-1.0854,-1.0861,-1.0893,-1.0904,-1.0927,-1.0938,-1.0952,-1.0966,-1.0994,-1.1012,-1.1022,-1.1038,-1.1061,-1.1081,-1.1085,-1.1093,-1.1096,-1.11,-1.108,-1.1078,-1.1076,-1.107,-1.1097,-1.1097,-1.112,-1.112,-1.1121]},{"header":{"parameterUnit":"m.s-1","parameterCategory":1,"la1":30.2991,"la2":30.254,"lo1":-89.0895,"lo2":-89.0444,"dy":0.0017,"dx":0.0017,"nx":28,"ny":28,"refTime":"2025-08-25T09:00:00:Z","depth":0,"parameterNumber":3,"parameterNumberName":"V-component_of_WINDS"},"data":[0,0,0,0,0,0,0,0,0,0,0,0,0,0,0,0,0,0,0,0,0,0,0,0,0,0,0,0,0,0,0,0,0,0,0,0,0,0,0,0,0,0,0,0,0,0,0,0,0,0,0,0,0,0,0,0,0,0,1.5947,1.5946,0,1.5841,1.584,1.5839,1.5733,1.5731,1.573,1.5728,1.5617,1.5615,1.5613,0,0,0,0,0,0,0,0,0,0,0,0,0,1.6054,1.6053,1.5947,1.5946,1.5945,1.5842,1.584,1.5839,1.5733,1.5731,1.5729,1.5728,1.5617,1.5615,1.5613,0,0,0,0,0,0,0,0,0,0,0,0,0,1.5984,1.6052,1.5948,1.588,1.5872,1.5842,1.584,1.5838,1.5733,1.5731,1.5729,1.5727,1.5618,1.5615,1.5613,1.564,0,0,1.5605,1.5604,0,0,0,0,0,0,0,0,1.5988,1.598,1.5891,1.5884,1.5876,1.5798,1.5836,1.5772,1.5734,1.5786,1.5728,1.5726,1.5678,1.5671,1.5655,1.5635,1.563,1.5605,1.5603,1.5602,1.5602,0,0,0,0,0,0,0,1.5993,1.5984,1.5905,1.589,1.5881,1.5853,1.5841,1.5824,1.5745,1.5781,1.5773,1.5762,1.5674,1.5658,1.5652,1.5628,1.5605,1.5603,1.5601,1.56,1.5622,1.5624,0,0,0,0,0,0,1.6009,1.5989,1.5909,1.5902,1.5928,1.5853,1.5839,1.5825,1.5745,1.5731,1.5764,1.5758,1.5663,1.5655,1.5648,1.5672,1.5602,1.56,1.5599,1.562,1.5622,1.5624,0,0,0,0,0,0,1.6011,1.6003,1.5913,1.5943,1.593,1.5853,1.5839,1.5824,1.5808,1.5732,1.5717,1.5763,1.5661,1.5651,1.5642,1.5667,1.5599,1.5597,1.5617,1.562,1.5623,1.5724,0,0,0,0,0,0,1.6015,1.6004,1.6015,1.5944,1.5929,1.5911,1.584,1.5824,1.5805,1.5795,1.5727,1.5714,1.5659,1.5647,1.564,1.5662,1.5595,1.5615,1.5619,1.5622,1.5718,1.573,1.574,0,0,0,0,0,1.6019,1.6047,1.6016,1.6007,1.594,1.5913,1.5903,1.5841,1.5807,1.5816,1.5767,1.5716,1.5666,1.5647,1.5638,1.566,1.5613,1.5617,1.5622,1.5713,1.5727,1.574,0,0,0,0,0,0,1.6121,1.6036,1.6001,1.6007,1.5968,1.5895,1.5904,1.5859,1.5827,1.582,1.5742,1.5728,1.5728,1.5693,1.5673,1.5681,1.5632,1.5635,1.5704,1.5717,1.5728,1.5736,1.5593,0,0,0,0,0,1.6145,1.6131,1.6057,1.6069,1.6051,1.5982,1.5967,1.5923,1.5878,1.5861,1.5811,1.5769,1.5744,1.5729,1.5701,1.5712,1.5695,1.5723,1.5735,1.5744,1.5747,1.5749,1.576,1.564,1.5639,1.5639,0,0,1.6193,1.6145,1.614,1.6088,1.6053,1.6038,1.5968,1.5956,1.5944,1.5859,1.5847,1.5809,1.5757,1.5758,1.5756,1.5729,1.5777,1.575,1.5758,1.5756,1.5755,1.5766,1.5777,1.5643,1.5642,1.5642,0,0,1.6272,1.6235,1.6241,1.6207,1.6154,1.6107,1.6109,1.6042,1.6014,1.6002,1.5936,1.592,1.5879,1.5844,1.5821,1.5886,1.5837,1.588,1.5938,1.594,1.595,1.5958,1.598,1.5989,1.5883,1.5884,1.5884,0,1.6338,1.6315,1.6249,1.6241,1.6219,1.6142,1.6146,1.6116,1.6057,1.6043,1.6014,1.5959,1.5919,1.591,1.5926,1.591,1.5908,1.5887,1.5954,1.5961,1.5968,1.5988,1.5996,1.5889,1.5888,1.5888,1.5887,0,1.6398,1.6383,1.6393,1.6339,1.6318,1.6317,1.6249,1.6236,1.6193,1.6149,1.6136,1.6085,1.6045,1.604,1.5997,1.6024,1.6009,1.5969,1.5917,1.5986,1.6003,1.601,1.5897,1.5895,1.5893,1.5892,0,0,1.6539,1.6448,1.6453,1.6426,1.6362,1.6348,1.6342,1.6304,1.6294,1.6255,1.6247,1.6213,1.6175,1.6149,1.6101,1.6104,1.6157,1.6062,1.6059,1.608,1.6182,1.6212,1.6223,1.6125,1.6126,1.6127,1.6186,0,1.6606,1.6592,1.6532,1.6535,1.6519,1.6445,1.6439,1.6398,1.6357,1.6336,1.629,1.6267,1.6218,1.6202,1.6201,1.6151,1.6176,1.6146,1.6115,1.6114,1.6129,1.6232,1.6264,1.6322,1.6192,1.6193,1.6194,0,1.6683,1.6651,1.6652,1.6587,1.6578,1.6575,1.6534,1.6516,1.6468,1.6437,1.6408,1.6355,1.6343,1.6296,1.6277,1.6258,1.6241,1.6214,1.6215,1.6209,1.6158,1.6227,1.6339,1.6348,1.6205,1.6204,1.6203,0,1.6785,1.6741,1.6735,1.6715,1.664,1.6639,1.6607,1.6557,1.6537,1.6501,1.6488,1.6451,1.6431,1.6402,1.634,1.6312,1.6328,1.6276,1.63,1.6302,1.6306,1.6307,1.6416,1.6298,1.6298,1.6298,1.6297,0,1.6866,1.6869,1.678,1.6776,1.6777,1.6708,1.671,1.6671,1.6627,1.6614,1.6547,1.6536,1.6455,1.6434,1.6386,1.6376,1.6368,1.6341,1.6328,1.6347,1.635,1.6334,1.6328,1.63,1.6299,1.6299,1.6299,0,1.6978,1.6919,1.6908,1.6838,1.682,1.6824,1.6763,1.6756,1.671,1.6694,1.6686,1.6614,1.6586,1.6522,1.6476,1.6443,1.6445,1.6422,1.6462,1.6454,1.6481,1.6479,1.6584,1.6593,1.6471,1.6472,1.6473,0,1.7034,1.7035,1.6964,1.6951,1.6923,1.6902,1.6882,1.6813,1.6795,1.6739,1.6739,1.6705,1.6675,1.6633,1.6575,1.6539,1.6514,1.6553,1.6508,1.6526,1.6513,1.6513,1.6512,1.6563,1.6565,1.6566,1.6567,0,1.7138,1.7108,1.7082,1.7046,1.7024,1.6992,1.6956,1.6949,1.6871,1.6853,1.6824,1.6801,1.6754,1.6721,1.6676,1.6641,1.6591,1.6582,1.6585,1.6604,1.6626,1.6613,1.6488,1.658,1.6578,1.6577,1.6577,1.6576,1.7222,1.7219,1.7169,1.7142,1.7108,1.7076,1.7066,1.7019,1.6994,1.6951,1.6912,1.6886,1.6836,1.6771,1.674,1.6717,1.6692,1.6697,1.6698,1.6701,1.6708,1.6631,1.6709,1.6708,1.6708,1.6708,1.6707,0,1.7321,1.7285,1.7262,1.7214,1.7192,1.7148,1.7106,1.709,1.7069,1.7027,1.6998,1.6964,1.6931,1.6872,1.6834,1.6827,1.6803,1.6819,1.6818,1.6811,1.6734,1.6734,1.6839,1.6839,1.6839,1.6839,1.6839,1.6839,1.737,1.7362,1.7327,1.7301,1.7264,1.7239,1.7219,1.7188,1.7154,1.7119,1.7092,1.7054,1.7004,1.6962,1.6929,1.6912,1.6901,1.6925,1.69,1.6829,1.6817,1.6805,1.6804,1.6923,1.6923,1.6979,1.698,1.698]}]]